TimeCDT,TemperatureF,Dew PointF,Humidity,Sea Level PressureIn,VisibilityMPH,Wind Direction,Wind SpeedMPH,Gust SpeedMPH,PrecipitationIn,Events,Conditions,WindDirDegrees,DateUTC
12:16 AM,57.2,42.8,59,30.10,10.0,ENE,10.4,-,N/A,,Clear,60,2013-05-23 05:16:00
12:35 AM,55.4,42.8,63,30.11,10.0,ENE,8.1,-,N/A,,Clear,60,2013-05-23 05:35:00
12:55 AM,55.4,42.8,63,30.12,10.0,ENE,9.2,-,N/A,,Clear,60,2013-05-23 05:55:00
1:16 AM,55.4,42.8,63,30.12,10.0,ENE,10.4,-,N/A,,Clear,60,2013-05-23 06:16:00
1:35 AM,53.6,42.8,67,30.13,10.0,ENE,6.9,-,N/A,,Clear,70,2013-05-23 06:35:00
1:55 AM,53.6,42.8,67,30.14,10.0,East,8.1,-,N/A,,Clear,80,2013-05-23 06:55:00
2:16 AM,53.6,42.8,67,30.15,10.0,ENE,4.6,-,N/A,,Clear,60,2013-05-23 07:16:00
2:35 AM,53.6,42.8,67,30.16,10.0,NE,4.6,-,N/A,,Clear,40,2013-05-23 07:35:00
2:56 AM,51.8,42.8,71,30.17,10.0,NE,6.9,-,N/A,,Clear,50,2013-05-23 07:56:00
3:15 AM,51.8,42.8,71,30.18,10.0,NE,5.8,-,N/A,,Clear,40,2013-05-23 08:15:00
3:36 AM,51.8,42.8,71,30.19,10.0,NE,5.8,-,N/A,,Clear,50,2013-05-23 08:36:00
3:56 AM,50.0,41.0,71,30.19,10.0,NE,6.9,-,N/A,,Clear,50,2013-05-23 08:56:00
4:15 AM,50.0,41.0,71,30.20,10.0,ENE,6.9,-,N/A,,Clear,60,2013-05-23 09:15:00
4:36 AM,50.0,39.2,66,30.21,10.0,ENE,6.9,-,N/A,,Clear,60,2013-05-23 09:36:00
4:56 AM,48.2,39.2,71,30.22,10.0,ENE,6.9,-,N/A,,Clear,60,2013-05-23 09:56:00
5:15 AM,48.2,37.4,66,30.23,10.0,ENE,8.1,-,N/A,,Clear,60,2013-05-23 10:15:00
5:36 AM,46.4,37.4,71,30.23,10.0,ENE,5.8,-,N/A,,Clear,60,2013-05-23 10:36:00
5:56 AM,46.4,37.4,71,30.24,10.0,ENE,6.9,-,N/A,,Clear,60,2013-05-23 10:56:00
6:15 AM,46.4,37.4,71,30.25,10.0,ENE,5.8,-,N/A,,Clear,70,2013-05-23 11:15:00
6:35 AM,46.4,37.4,71,30.26,10.0,ENE,6.9,-,N/A,,Clear,70,2013-05-23 11:35:00
6:56 AM,48.2,37.4,66,30.27,10.0,ENE,4.6,-,N/A,,Clear,70,2013-05-23 11:56:00
7:15 AM,48.2,37.4,66,30.27,10.0,ENE,6.9,-,N/A,,Clear,70,2013-05-23 12:15:00
7:35 AM,50.0,35.6,58,30.28,10.0,East,10.4,-,N/A,,Clear,80,2013-05-23 12:35:00
7:56 AM,50.0,35.6,58,30.28,10.0,East,6.9,-,N/A,,Clear,90,2013-05-23 12:56:00
8:15 AM,51.8,35.6,54,30.29,10.0,East,6.9,-,N/A,,Clear,90,2013-05-23 13:15:00
8:35 AM,51.8,37.4,58,30.29,10.0,East,5.8,-,N/A,,Clear,80,2013-05-23 13:35:00
8:56 AM,51.8,37.4,58,30.30,10.0,ENE,6.9,-,N/A,,Clear,70,2013-05-23 13:56:00
9:15 AM,53.6,37.4,54,30.30,10.0,ENE,6.9,-,N/A,,Clear,70,2013-05-23 14:15:00
9:36 AM,53.6,35.6,51,30.31,10.0,ENE,6.9,-,N/A,,Clear,60,2013-05-23 14:36:00
9:55 AM,53.6,33.8,47,30.31,10.0,ENE,12.7,-,N/A,,Clear,70,2013-05-23 14:55:00
10:16 AM,53.6,33.8,47,30.32,10.0,ENE,9.2,-,N/A,,Clear,70,2013-05-23 15:16:00
10:35 AM,55.4,33.8,44,30.32,10.0,East,6.9,-,N/A,,Clear,100,2013-05-23 15:35:00
10:55 AM,55.4,35.6,47,30.31,10.0,NNW,3.5,-,N/A,,Clear,340,2013-05-23 15:55:00
11:15 AM,55.4,33.8,44,30.31,10.0,East,9.2,-,N/A,,Clear,90,2013-05-23 16:15:00
11:35 AM,57.2,32.0,38,30.31,10.0,NE,6.9,-,N/A,,Clear,50,2013-05-23 16:35:00
11:56 AM,-9999,-9999,N/A,-9999,-9999.0,North,-9999.0,-,N/A,,Unknown,0,2013-05-23 16:56:00
12:15 PM,-9999,-9999,N/A,-9999,-9999.0,North,-9999.0,-,N/A,,Unknown,0,2013-05-23 17:15:00
12:35 PM,59.0,30.2,34,30.32,10.0,ENE,5.8,-,N/A,,Unknown,70,2013-05-23 17:35:00
12:55 PM,59.0,28.4,31,30.31,10.0,ENE,9.2,-,N/A,,Clear,60,2013-05-23 17:55:00
1:16 PM,60.8,30.2,31,30.31,10.0,NE,6.9,-,N/A,,Clear,40,2013-05-23 18:16:00
1:35 PM,60.8,30.2,31,30.31,10.0,NE,3.5,-,N/A,,Clear,50,2013-05-23 18:35:00
1:55 PM,60.8,28.4,29,30.31,10.0,ESE,8.1,-,N/A,,Clear,110,2013-05-23 18:55:00
2:16 PM,60.8,28.4,29,30.31,10.0,NNE,9.2,-,N/A,,Clear,20,2013-05-23 19:16:00
2:35 PM,62.6,30.2,30,30.30,10.0,East,8.1,-,N/A,,Clear,90,2013-05-23 19:35:00
2:55 PM,62.6,28.4,27,30.30,10.0,NE,9.2,-,N/A,,Clear,50,2013-05-23 19:55:00
3:16 PM,62.6,30.2,30,30.30,10.0,ENE,5.8,-,N/A,,Clear,70,2013-05-23 20:16:00
3:35 PM,62.6,28.4,27,30.29,10.0,East,4.6,-,N/A,,Clear,90,2013-05-23 20:35:00
3:55 PM,64.4,30.2,28,30.29,10.0,ESE,5.8,-,N/A,,Clear,110,2013-05-23 20:55:00
4:16 PM,64.4,30.2,28,30.29,10.0,NW,4.6,-,N/A,,Clear,320,2013-05-23 21:16:00
4:35 PM,64.4,32.0,30,30.28,10.0,SSE,9.2,-,N/A,,Clear,150,2013-05-23 21:35:00
4:55 PM,64.4,28.4,26,30.28,10.0,Calm,Calm,-,N/A,,Clear,0,2013-05-23 21:55:00
5:15 PM,64.4,28.4,26,30.28,10.0,South,5.8,-,N/A,,Clear,180,2013-05-23 22:15:00
5:35 PM,64.4,28.4,26,30.28,10.0,SE,6.9,-,N/A,,Clear,140,2013-05-23 22:35:00
5:56 PM,64.4,26.6,24,30.28,10.0,SSE,9.2,-,N/A,,Clear,150,2013-05-23 22:56:00
6:15 PM,64.4,28.4,26,30.28,10.0,South,6.9,-,N/A,,Clear,170,2013-05-23 23:15:00
6:35 PM,64.4,28.4,26,30.28,10.0,SSE,8.1,-,N/A,,Clear,150,2013-05-23 23:35:00
6:56 PM,64.4,30.2,28,30.27,10.0,SSE,8.1,-,N/A,,Clear,160,2013-05-23 23:56:00
7:15 PM,62.6,26.6,26,30.27,10.0,SSE,8.1,-,N/A,,Clear,160,2013-05-24 00:15:00
7:35 PM,62.6,28.4,27,30.27,10.0,SSE,9.2,-,N/A,,Clear,150,2013-05-24 00:35:00
7:55 PM,60.8,28.4,29,30.27,10.0,SSE,9.2,-,N/A,,Clear,160,2013-05-24 00:55:00
8:15 PM,59.0,28.4,31,30.27,10.0,SSE,6.9,-,N/A,,Clear,160,2013-05-24 01:15:00
8:36 PM,59.0,30.2,34,30.28,10.0,SSE,6.9,-,N/A,,Clear,160,2013-05-24 01:36:00
8:55 PM,57.2,28.4,33,30.27,10.0,SE,5.8,-,N/A,,Clear,140,2013-05-24 01:55:00
9:15 PM,57.2,30.2,36,30.28,10.0,SE,5.8,-,N/A,,Clear,140,2013-05-24 02:15:00
9:36 PM,55.4,28.4,36,30.29,10.0,SE,5.8,-,N/A,,Clear,140,2013-05-24 02:36:00
9:55 PM,55.4,28.4,36,30.29,10.0,SE,5.8,-,N/A,,Clear,140,2013-05-24 02:55:00
10:15 PM,53.6,28.4,38,30.30,10.0,SE,4.6,-,N/A,,Clear,140,2013-05-24 03:15:00
10:36 PM,53.6,28.4,38,30.30,10.0,SE,4.6,-,N/A,,Clear,130,2013-05-24 03:36:00
10:55 PM,53.6,28.4,38,30.31,10.0,SE,3.5,-,N/A,,Clear,140,2013-05-24 03:55:00
11:15 PM,53.6,32.0,44,30.31,10.0,SE,3.5,-,N/A,,Clear,140,2013-05-24 04:15:00
11:36 PM,53.6,32.0,44,30.31,10.0,SE,4.6,-,N/A,,Clear,130,2013-05-24 04:36:00
11:55 PM,51.8,32.0,47,30.31,10.0,SE,3.5,-,N/A,,Clear,130,2013-05-24 04:55:00